Simultaneous Nadir Overpasses (SNOs) Predictions

Prediction of SNOs between GOES-16 and NPP Satellite Orbit:

Table of predicted SNOs for the next 14.0 days since TLE Epoch: 2/27/2021
Index Date Time (GOES-16) GOES-16 Lat,Lon NPP Lat,Lon Distance(km) Time Diff (sec)
1 02/27/2021 18:10:08 0.03, -75.20 0.91, -71.19 456.59 80
2 03/01/2021 06:31:56 -0.02, -75.20 0.29, -76.46 143.34 80
3 03/02/2021 06:10:31 -0.02, -75.21 -0.75, -71.93 373.40 80
4 03/03/2021 18:32:28 0.02, -75.21 -0.42, -77.24 230.29 80
5 03/04/2021 18:16:23 0.02, -75.22 0.61, -72.71 286.90 80
6 03/06/2021 06:38:10 -0.02, -75.23 0.58, -77.97 312.05 80
7 03/07/2021 06:16:45 -0.01, -75.24 -0.39, -73.43 205.18 80
8 03/08/2021 18:38:41 -0.00, -75.24 -0.77, -78.74 397.94 80
9 03/09/2021 18:22:36 -0.00, -75.26 0.21, -74.20 119.94 80
10 03/11/2021 06:44:24 0.00, -75.29 0.93, -79.48 477.38 80
11 03/12/2021 06:23:00 0.00, -75.30 -0.10, -74.95 40.79 80
